Weather Service Report


127 
ASCA42 TJSJ 060210
RWRPR 
PUERTO RICO/U.S. VIRGIN ISLANDS HOURLY WEATHER ROUNDUP
NATIONAL WEATHER SERVICE SAN JUAN PR
1000 PM AST MON DEC 05 2016

PRZ001>002-007>008-010-060300-
PUERTO RICO
  
CITY           SKY/WX    TMP DP  RH WIND       PRES   REMARKS
SAN JUAN LMM   PTCLDY    79  75  89 S3        30.02R                  
CEIBA          CLOUDY    79  73  83 E5        30.04R                  
$$

VIZ001>002-060300-
U.S. VIRGIN ISLANDS
  
CITY           SKY/WX    TMP DP  RH WIND       PRES   REMARKS
CHARLOTTE AMA  CLEAR     79  73  83 E7        30.01R                  
CHRISTIANSTED  CLEAR     73  70  88 NE5       30.02R                  
$$

HOURLY WEATHER ROUNDUP FOR THE NEWS MEDIA
  
CITY           SKY/WX    TMP DP  RH WIND       PRES   REMARKS
ORLANDO        PTCLDY    78  69  73 S9        29.91S                  
NEW YORK       MOCLDY    46  30  53 NW12      30.09R                  
NEWARK         MOCLDY    43  34  70 W5        30.09R                  
CHICAGO        CLOUDY    32  29  88 SE9       29.97F FOG     WCI  24  
HARTFORD       CLEAR     36  32  85 NW6       29.98R WCI  31          
BOSTON         CLEAR     39  33  79 W10       29.97R WCI  32          
DALLAS         CLOUDY    51  48  89 S3        29.72S                  
PHILADELPHIA   CLOUDY    43  32  65 NW8       30.11R                  
LOS ANGELES    PTCLDY    59  55  87 W7        29.93S                  
WASHINGTON DC  CLOUDY    43  31  62 NE6       30.10R                  

Return to Home page


Western Regional Climate Center, wrcc@dri.edu